"Pseudo-MPEC" for P10U2PG

Created 2019 Nov 13 9:07:10 UT using Find_Orb

Click here for an explanation of pseudo-MPECs

 
 Astrometry: 
     P10U2PG  C2019 11 03^Ryw$^l=q)4jg+l1OD@#Astrometry[dJEZ%0xdHyp!vt_ClVZ!mF51
     P10U2PG  C2019 11 03emYnI#5L^SP^3Unftqejr;?2^eh?Ei2e7kY:HnAa!qE5'm!!d@E7F51
     P10U2PG  C2019 11 03[It)k9O5%nLKM@sva4w3Yfnredacted;'AoEan\w3_qQdEfi9lnAF51
     P10U2PG  C2019 11 03fB=(Vn;j[/KXp-;9lf0wP/=s#cBDPdaXt/Mdj\5mn`etmh9lR7vaF51
     P10U2PG |C2019 11 06.Idrk.H/IZ*3-H#C8J7x5eEo-^a_O7!^;e0`NXpQclick8TdyBBn807
     P10U2PG |C2019 11 06l3F\RkQ`*myY^qyf':n90y+d*t,iR954l[f,eY_x=here`Jq+1tE807
     P10U2PG |C2019 11 06us*97i3woVP/FU'^;Fqxi`H`@TKfornSFB79Y1v]explanation;807

Station data:
(807) Cerro Tololo Observatory, La Serena  (S30.169136 W70.805900)  Chile.
(F51) Pan-STARRS 1, Haleakala  (N20.707235 W156.255910)  US/Hawaii.
   Observers N. Primak, A. Schultz, S. Watters, J. Thiel, T. Goggia. Measurer
   PS1 Science Consortium. 1.8-m Ritchey-Chrétien + CCD.

Orbital elements:  P10U2PG
   Perihelion 2019 Nov 13.390122 +/- 8.57 TT =  9:21:46 (JD 2458800.890122)
Epoch 2019 Nov  6.0 TT = JDT 2458793.5   Earth MOID: 0.2351   Ma: 0.0339
M 358.44833186 +/- 1.4              (J2000 ecliptic)          AutoNEOCP
n   0.20996516 +/- 0.0899           Peri.  309.89050 +/- 17
a   2.80352577 +/- 0.8              Node    98.42030 +/- 9
e   0.5715545 +/- 0.117             Incl.    7.26138 +/- 1.4
P   4.69                   H 23.8   G  0.15   U 11.1  
q 1.20115780 +/- 0.0207    Q 4.40589374 +/- 2.13
From 7 observations 2019 Nov. 3-6; mean residual 0".10
Residuals in arcseconds: 
191103 F51  .00   .18-    191103 F51  .00   .06-    191106 807  .12+  .02-    
191103 F51  .09+  .07+    191106 807  .01+  .12-    
191103 F51  .09-  .17+    191106 807  .13-  .14+    

Ephemerides (geocentric):
Date (UTC) HH   RA              Dec         delta   r     elong  mag " sig PA
---- -- -- --  -------------   -----------  ------ ------ -----  --- ---- ---
2019 11 13 09  03 05 05.817   -13 01 46.16  .23922 1.2012 149.1 22.3  530  46
2019 11 13 10  03 05 10.062   -13 00 21.91  .23921 1.2012 149.1 22.3  536  46
2019 11 13 11  03 05 14.306   -12 58 57.55  .23920 1.2012 149.1 22.3  541  46
2019 11 13 12  03 05 18.551   -12 57 33.07  .23919 1.2012 149.1 22.3  547  46
2019 11 13 13  03 05 22.795   -12 56 08.49  .23918 1.2012 149.1 22.3  553  46
2019 11 13 14  03 05 27.039   -12 54 43.79  .23917 1.2012 149.1 22.3  558  46
2019 11 13 15  03 05 31.284   -12 53 18.98  .23916 1.2012 149.1 22.3  564  46
2019 11 13 16  03 05 35.528   -12 51 54.05  .23915 1.2012 149.2 22.3  570  46
2019 11 13 17  03 05 39.772   -12 50 29.02  .23914 1.2012 149.2 22.3  575  46
2019 11 13 18  03 05 44.016   -12 49 03.87  .23913 1.2012 149.2 22.3  581  45
2019 11 13 19  03 05 48.260   -12 47 38.61  .23912 1.2012 149.2 22.3  587  45
2019 11 13 20  03 05 52.504   -12 46 13.24  .23911 1.2012 149.2 22.3  593  45
2019 11 13 21  03 05 56.748   -12 44 47.75  .23911 1.2012 149.2 22.3  598  45
2019 11 13 22  03 06 00.991   -12 43 22.16  .23910 1.2012 149.2 22.3  604  45
2019 11 13 23  03 06 05.235   -12 41 56.46  .23909 1.2012 149.2 22.3  610  45
2019 11 14 00  03 06 09.478   -12 40 30.64  .23908 1.2012 149.2 22.3  616  45
2019 11 14 01  03 06 13.722   -12 39 04.72  .23907 1.2012 149.3 22.3  622  45
2019 11 14 02  03 06 17.965   -12 37 38.68  .23906 1.2012 149.3 22.3  628  45
2019 11 14 03  03 06 22.208   -12 36 12.53  .23906 1.2012 149.3 22.3  634  45
2019 11 14 04  03 06 26.451   -12 34 46.28  .23905 1.2012 149.3 22.3  640  45
2019 11 14 05  03 06 30.694   -12 33 19.91  .23904 1.2012 149.3 22.3  646  45
2019 11 14 06  03 06 34.937   -12 31 53.43  .23903 1.2012 149.3 22.3  652  45
2019 11 14 07  03 06 39.180   -12 30 26.85  .23903 1.2012 149.3 22.3  658  45
2019 11 14 08  03 06 43.423   -12 29 00.15  .23902 1.2012 149.3 22.3  664  45
2019 11 14 09  03 06 47.665   -12 27 33.35  .23901 1.2012 149.3 22.3  670  45
2019 11 14 10  03 06 51.908   -12 26 06.43  .23901 1.2012 149.4 22.3  676  45
2019 11 14 11  03 06 56.150   -12 24 39.41  .23900 1.2012 149.4 22.3  683  45
2019 11 14 12  03 07 00.392   -12 23 12.28  .23900 1.2012 149.4 22.3  689  45
2019 11 14 13  03 07 04.634   -12 21 45.04  .23899 1.2012 149.4 22.3  695  45
2019 11 14 14  03 07 08.876   -12 20 17.69  .23899 1.2012 149.4 22.3  702  45
2019 11 14 15  03 07 13.118   -12 18 50.23  .23898 1.2012 149.4 22.3  708  45
2019 11 14 16  03 07 17.360   -12 17 22.67  .23897 1.2013 149.4 22.3  714  45
2019 11 14 17  03 07 21.602   -12 15 54.99  .23897 1.2013 149.4 22.3  721  45
2019 11 14 18  03 07 25.843   -12 14 27.21  .23896 1.2013 149.4 22.3  727  45
2019 11 14 19  03 07 30.085   -12 12 59.33  .23896 1.2013 149.5 22.3  733  45
2019 11 14 20  03 07 34.326   -12 11 31.33  .23896 1.2013 149.5 22.3  740  45
2019 11 14 21  03 07 38.567   -12 10 03.23  .23895 1.2013 149.5 22.3  746  45
2019 11 14 22  03 07 42.808   -12 08 35.02  .23895 1.2013 149.5 22.3  753  45
2019 11 14 23  03 07 47.049   -12 07 06.70  .23894 1.2013 149.5 22.3  760  45
2019 11 15 00  03 07 51.290   -12 05 38.28  .23894 1.2013 149.5 22.3  766  45
2019 11 15 01  03 07 55.530   -12 04 09.75  .23894 1.2013 149.5 22.3  773  45
2019 11 15 02  03 07 59.771   -12 02 41.11  .23893 1.2013 149.5 22.3  779  45
2019 11 15 03  03 08 04.011   -12 01 12.37  .23893 1.2013 149.6 22.3  786  45
2019 11 15 04  03 08 08.251   -11 59 43.52  .23893 1.2013 149.6 22.3  793  45
2019 11 15 05  03 08 12.491   -11 58 14.57  .23893 1.2014 149.6 22.3  799  45
2019 11 15 06  03 08 16.731   -11 56 45.51  .23892 1.2014 149.6 22.3  806  45
2019 11 15 07  03 08 20.971   -11 55 16.35  .23892 1.2014 149.6 22.3  813  45
2019 11 15 08  03 08 25.210   -11 53 47.08  .23892 1.2014 149.6 22.3  820  45